TimeEST,TemperatureF,Dew PointF,Humidity,Sea Level PressureIn,VisibilityMPH,Wind Direction,Wind SpeedMPH,Gust SpeedMPH,PrecipitationIn,Events,Conditions,WindDirDegrees,DateUTC
12:13 AM,-9999,-9999,N/A,29.75,5.0,Calm,Calm,-,N/A,,Haze,0,2012-12-19 05:13:00
12:33 AM,-9999,-9999,N/A,29.75,5.0,Calm,Calm,-,N/A,,Haze,0,2012-12-19 05:33:00
12:53 AM,-9999,-9999,N/A,29.75,5.0,Calm,Calm,-,N/A,,Haze,0,2012-12-19 05:53:00
1:13 AM,-9999,-9999,N/A,29.75,5.0,Calm,Calm,-,N/A,,Haze,0,2012-12-19 06:13:00
1:33 AM,-9999,-9999,N/A,29.75,5.0,Calm,Calm,-,N/A,,Haze,0,2012-12-19 06:33:00
1:53 AM,-9999,-9999,N/A,29.76,5.0,Calm,Calm,-,N/A,,Haze,0,2012-12-19 06:53:00
2:13 AM,-9999,-9999,N/A,29.76,5.0,Calm,Calm,-,N/A,,Haze,0,2012-12-19 07:13:00
2:33 AM,-9999,-9999,N/A,29.77,5.0,Calm,Calm,-,N/A,,Haze,0,2012-12-19 07:33:00
2:53 AM,-9999,-9999,N/A,29.78,5.0,Calm,Calm,-,N/A,,Haze,0,2012-12-19 07:53:00
3:12 AM,-9999,-9999,N/A,29.79,5.0,South,3.5,-,N/A,,Haze,190,2012-12-19 08:12:00
3:33 AM,-9999,-9999,N/A,29.79,5.0,Calm,Calm,-,N/A,,Haze,0,2012-12-19 08:33:00
3:53 AM,-9999,-9999,N/A,29.80,5.0,Calm,Calm,-,N/A,,Haze,0,2012-12-19 08:53:00
4:12 AM,33.3,33.3,100,29.81,5.0,Calm,Calm,-,N/A,,Overcast,0,2012-12-19 09:12:00
4:33 AM,-9999,-9999,N/A,29.82,5.0,Calm,Calm,-,N/A,,Overcast,0,2012-12-19 09:33:00
4:53 AM,-9999,-9999,N/A,29.83,4.0,NW,4.6,-,N/A,,Haze,320,2012-12-19 09:53:00
5:13 AM,-9999,-9999,N/A,29.84,4.0,NW,3.5,-,N/A,,Haze,310,2012-12-19 10:13:00
5:33 AM,-9999,-9999,N/A,29.85,4.0,Calm,Calm,-,N/A,,Haze,0,2012-12-19 10:33:00
5:53 AM,-9999,-9999,N/A,29.85,4.0,Calm,Calm,-,N/A,,Haze,0,2012-12-19 10:53:00
6:13 AM,-9999,-9999,N/A,29.86,4.0,Calm,Calm,-,N/A,,Haze,0,2012-12-19 11:13:00
6:33 AM,-9999,-9999,N/A,29.88,4.0,Calm,Calm,-,N/A,,Haze,0,2012-12-19 11:33:00
6:53 AM,-9999,-9999,N/A,29.90,5.0,Calm,Calm,-,N/A,,Haze,0,2012-12-19 11:53:00
7:13 AM,-9999,-9999,N/A,29.91,5.0,NW,3.5,-,N/A,,Haze,310,2012-12-19 12:13:00
7:33 AM,-9999,-9999,N/A,29.90,5.0,Calm,Calm,-,N/A,,Haze,0,2012-12-19 12:33:00
7:53 AM,-9999,-9999,N/A,29.91,5.0,Calm,Calm,-,N/A,,Haze,0,2012-12-19 12:53:00
8:13 AM,-9999,-9999,N/A,29.92,2.5,Calm,Calm,-,N/A,,Scattered Clouds,0,2012-12-19 13:13:00
8:33 AM,-9999,-9999,N/A,29.93,2.5,Calm,Calm,-,N/A,,Scattered Clouds,0,2012-12-19 13:33:00
8:53 AM,-9999,-9999,N/A,29.94,-9999.0,Calm,Calm,-,N/A,,Unknown,0,2012-12-19 13:53:00
9:13 AM,-9999,-9999,N/A,29.95,1.2,West,3.5,-,N/A,,Overcast,260,2012-12-19 14:13:00
9:53 AM,-9999,-9999,N/A,29.98,0.8,WSW,3.5,-,N/A,,Overcast,250,2012-12-19 14:53:00
10:13 AM,-9999,-9999,N/A,29.98,0.5,WSW,5.8,-,N/A,Fog,Fog,240,2012-12-19 15:13:00
10:33 AM,-9999,-9999,N/A,30.00,1.2,WSW,4.6,-,N/A,,Overcast,250,2012-12-19 15:33:00
10:53 AM,-9999,-9999,N/A,30.01,2.0,WSW,6.9,-,N/A,,Overcast,240,2012-12-19 15:53:00
11:13 AM,35.4,35.4,100,30.02,4.0,WSW,6.9,-,N/A,,Overcast,240,2012-12-19 16:13:00
11:33 AM,37.9,32.9,82,30.01,7.0,WSW,5.8,-,N/A,,Overcast,240,2012-12-19 16:33:00
11:53 AM,37.6,32.7,83,30.03,7.0,West,6.9,-,N/A,,Overcast,270,2012-12-19 16:53:00
12:13 PM,37.4,32.0,81,30.03,10.0,WSW,6.9,-,N/A,,Overcast,250,2012-12-19 17:13:00
12:33 PM,38.5,33.1,81,30.03,10.0,West,6.9,-,N/A,,Overcast,270,2012-12-19 17:33:00
12:53 PM,37.2,32.0,81,30.03,10.0,WSW,6.9,-,N/A,,Mostly Cloudy,250,2012-12-19 17:53:00
1:13 PM,38.7,32.4,78,30.03,10.0,WSW,4.6,-,N/A,,Overcast,250,2012-12-19 18:13:00
1:33 PM,38.7,32.4,78,30.03,10.0,Calm,Calm,-,N/A,,Overcast,0,2012-12-19 18:33:00
1:53 PM,38.3,31.6,77,30.03,10.0,West,4.6,-,N/A,,Overcast,280,2012-12-19 18:53:00
2:13 PM,38.5,31.5,76,30.03,10.0,WSW,4.6,-,N/A,,Mostly Cloudy,250,2012-12-19 19:13:00
2:33 PM,38.3,31.6,77,30.03,10.0,NW,4.6,-,N/A,,Scattered Clouds,310,2012-12-19 19:33:00
2:53 PM,38.5,30.9,74,30.04,10.0,WNW,4.6,-,N/A,,Scattered Clouds,290,2012-12-19 19:53:00
3:13 PM,39.2,30.9,72,30.05,10.0,Calm,Calm,-,N/A,,Scattered Clouds,0,2012-12-19 20:13:00
3:33 PM,39.2,31.1,73,30.05,10.0,West,3.5,-,N/A,,Clear,260,2012-12-19 20:33:00
3:53 PM,39.0,30.7,72,30.05,10.0,Calm,Calm,-,N/A,,Clear,0,2012-12-19 20:53:00
4:13 PM,37.6,29.8,74,30.05,10.0,Calm,Calm,-,N/A,,Clear,0,2012-12-19 21:13:00
4:33 PM,36.3,30.0,78,30.05,10.0,Calm,Calm,-,N/A,,Clear,0,2012-12-19 21:33:00
4:53 PM,34.0,30.4,87,30.06,10.0,Calm,Calm,-,N/A,,Clear,0,2012-12-19 21:53:00
5:13 PM,32.9,30.0,89,30.07,10.0,South,3.5,-,N/A,,Clear,180,2012-12-19 22:13:00
5:32 PM,32.2,30.0,92,30.07,10.0,South,3.5,-,N/A,,Clear,180,2012-12-19 22:32:00
5:53 PM,30.7,29.1,94,30.09,7.0,South,3.5,-,N/A,,Clear,190,2012-12-19 22:53:00
6:13 PM,30.9,29.3,94,30.10,7.0,Calm,Calm,-,N/A,,Clear,0,2012-12-19 23:13:00
6:32 PM,29.8,28.8,96,30.10,5.0,Calm,Calm,-,N/A,,Clear,0,2012-12-19 23:32:00
6:53 PM,29.1,28.2,96,30.10,4.0,Calm,Calm,-,N/A,,Clear,0,2012-12-19 23:53:00
7:13 PM,28.8,28.0,97,30.12,5.0,Calm,Calm,-,N/A,,Clear,0,2012-12-20 00:13:00
7:32 PM,29.1,28.2,96,30.12,4.0,Calm,Calm,-,N/A,,Clear,0,2012-12-20 00:32:00
7:53 PM,28.4,27.9,98,30.13,4.0,Calm,Calm,-,N/A,,Scattered Clouds,0,2012-12-20 00:53:00
8:13 PM,27.5,27.0,98,30.13,4.0,Calm,Calm,-,N/A,,Clear,0,2012-12-20 01:13:00
8:32 PM,28.2,27.3,96,30.13,4.0,Calm,Calm,-,N/A,,Clear,0,2012-12-20 01:32:00
8:53 PM,27.5,26.6,96,30.11,4.0,ENE,3.5,-,N/A,,Clear,70,2012-12-20 01:53:00
9:13 PM,27.3,26.6,97,30.11,4.0,Calm,Calm,-,N/A,,Clear,0,2012-12-20 02:13:00
9:32 PM,27.5,26.6,96,30.10,4.0,Calm,Calm,-,N/A,,Clear,0,2012-12-20 02:32:00
9:53 PM,27.5,26.8,97,30.10,4.0,Calm,Calm,-,N/A,,Clear,0,2012-12-20 02:53:00
10:13 PM,26.4,25.5,96,30.10,4.0,Calm,Calm,-,N/A,,Clear,0,2012-12-20 03:13:00
10:32 PM,28.0,27.3,97,30.10,4.0,Calm,Calm,-,N/A,,Clear,0,2012-12-20 03:32:00
10:53 PM,29.3,28.2,96,30.11,5.0,Calm,Calm,-,N/A,,Clear,0,2012-12-20 03:53:00
11:13 PM,29.7,28.4,95,30.11,5.0,Calm,Calm,-,N/A,,Scattered Clouds,0,2012-12-20 04:13:00
11:33 PM,29.3,28.4,96,30.10,4.0,Calm,Calm,-,N/A,,Scattered Clouds,0,2012-12-20 04:33:00
11:53 PM,29.8,28.8,96,30.10,4.0,Calm,Calm,-,N/A,,Scattered Clouds,0,2012-12-20 04:53:00